Location: Orange
(33.2833°S, 149.1000°E)
Time: 23:44:41
(UTC+11:00)

X-37B - Pass Details

Date: 12 December 2021
Orbit: 334 x 337 km, 45.0° (Epoch: 11 January)

Event Time Altitude Azimuth Distance (km) Brightness Sun altitude
Exits shadow 04:41:21 22° 282° (WNW) 818 1.7 -12.4°
Maximum altitude 04:42:59 54° 212° (SSW) 424 0.8 -12.1°
Drops below altitude 10° 04:45:51 10° 132° (SE) 1,295 4.8 -11.6°
Sets 04:47:54 0° 127° (SE) 2,140 6.6 -11.3°
